Orbital Elements at Epoch 2459200.5 (2020-Dec-17.0) TDB
Reference: JPL 11 (heliocentric ecliptic J2000)
Element | Value | Uncertainty (1-sigma) | Units |
e | .198235769325433 | 5.0745e-08 | |
a | 2.401124615108531 | 1.1569e-08 | au |
q | 1.925135829786257 | 1.2258e-07 | au |
i | 2.124133322641066 | 6.8168e-06 | deg |
node | 337.3175971991803 | 0.00012212 | deg |
peri | 325.4078702165509 | 0.00012295 | deg |
M | 252.0533744220215 | 1.4435e-05 | deg |
tp | 2459607.999468662955 (2022-Jan-28.49946866) | 5.5305e-05 | TDB |
period | 1359.003191931097 3.72 | 9.8219e-06 2.689e-08 | d yr |
n | .2649000400716148 | 1.9145e-09 | deg/d |
Q | 2.877113400430805 | 1.3863e-08 | au |
|
| | Orbit Determination Parameters
Additional Information
|